When you browse on this site, cookies collect data to enhance your experience and personalize the content and advertising you see.
Visit our Privacy Policy to learn more. By continuing to use the site, you agree to this use of cookies and data.
  • In Hungary
  • List of Countries
  • For 7 days
  • Water Temperature
  • Weather Map
  • News
  • Weather Widgets
  • user-avatar
    Login

    Hourly Weather Villavicencio

    Today, 18 November, Monday

    Time Temperature Precipitation Wind Pressure Humidity
    00:00 +24°C° 0.2 mm 1 mps 715 mmHg 91%
    01:00 +23°C° 0.2 mm 1 mps 715 mmHg 90%
    02:00 +23°C° 0.4 mm 1 mps 715 mmHg 90%
    03:00 +23°C° 0.4 mm 1 mps 715 mmHg 89%
    04:00 +23°C° 0.4 mm 1 mps 715 mmHg 89%
    05:00 +24°C° 0.4 mm 1 mps 716 mmHg 88%
    06:00 +24°C° 0.4 mm 1 mps 716 mmHg 88%
    07:00 +25°C° 0.4 mm 1 mps 717 mmHg 87%
    08:00 +26°C° 0.3 mm 1 mps 717 mmHg 86%
    09:00 +27°C° 0.3 mm 1 mps 717 mmHg 86%
    10:00 +26°C° 0.3 mm 0 mps 717 mmHg 85%
    11:00 +28°C° 0.7 mm 1 mps 716 mmHg 83%
    12:00 +29°C° 0.7 mm 1 mps 716 mmHg 81%
    13:00 +29°C° 0.7 mm 1 mps 715 mmHg 79%
    14:00 +29°C° 0.6 mm 1 mps 715 mmHg 80%
    15:00 +29°C° 0.6 mm 1 mps 714 mmHg 82%
    16:00 +27°C° 0.6 mm 0 mps 714 mmHg 83%
    17:00 +27°C° 0.7 mm 1 mps 714 mmHg 87%
    18:00 +26°C° 0.7 mm 1 mps 715 mmHg 90%
    19:00 +25°C° 0.7 mm 1 mps 715 mmHg 93%
    20:00 +24°C° 0.1 mm 1 mps 716 mmHg 93%
    21:00 +24°C° 0.1 mm 1 mps 716 mmHg 92%
    22:00 +24°C° 0.1 mm 1 mps 717 mmHg 91%
    23:00 +24°C° 0.1 mm 1 mps 716 mmHg 91%

    Tomorrow, 19 November, Tuesday

    Time Temperature Precipitation Wind Pressure Humidity
    00:00 +23°C° 0.1 mm 1 mps 716 mmHg 90%
    01:00 +23°C° 0.1 mm 1 mps 716 mmHg 89%
    02:00 +23°C° 0.4 mm 1 mps 716 mmHg 89%
    03:00 +23°C° 0.4 mm 1 mps 716 mmHg 89%
    04:00 +23°C° 0.4 mm 1 mps 716 mmHg 89%
    05:00 +23°C° 0.5 mm 1 mps 716 mmHg 89%
    06:00 +24°C° 0.5 mm 1 mps 717 mmHg 90%
    07:00 +24°C° 0.5 mm 1 mps 717 mmHg 90%
    08:00 +25°C° 0.4 mm 1 mps 718 mmHg 89%
    09:00 +26°C° 0.4 mm 1 mps 718 mmHg 87%
    10:00 +27°C° 0.4 mm 1 mps 718 mmHg 86%
    11:00 +28°C° 0.5 mm 1 mps 717 mmHg 80%
    12:00 +29°C° 0.5 mm 2 mps 716 mmHg 75%
    13:00 +30°C° 0.5 mm 2 mps 716 mmHg 69%
    14:00 +30°C° 0.4 mm 2 mps 715 mmHg 75%
    15:00 +29°C° 0.4 mm 1 mps 715 mmHg 80%
    16:00 +29°C° 0.4 mm 1 mps 715 mmHg 86%
    17:00 +27°C° 0.6 mm 1 mps 715 mmHg 88%
    18:00 +26°C° 0.6 mm 1 mps 716 mmHg 90%
    19:00 +25°C° 0.6 mm 1 mps 716 mmHg 93%
    20:00 +25°C° 0.1 mm 1 mps 717 mmHg 92%
    21:00 +24°C° 0.1 mm 1 mps 717 mmHg 91%
    22:00 +24°C° 0.1 mm 2 mps 717 mmHg 90%
    23:00 +24°C° 0 mm 1 mps 717 mmHg 89%

    Day after tomorrow, 20 November, Wednesday

    Time Temperature Precipitation Wind Pressure Humidity
    00:00 +24°C° 0 mm 1 mps 717 mmHg 88%
    01:00 +23°C° 0 mm 1 mps 716 mmHg 87%
    02:00 +23°C° 0.2 mm 1 mps 716 mmHg 87%
    03:00 +23°C° 0.2 mm 1 mps 716 mmHg 87%
    04:00 +23°C° 0.2 mm 1 mps 716 mmHg 87%
    05:00 +24°C° 1 mm 1 mps 717 mmHg 88%
    06:00 +24°C° 1 mm 1 mps 717 mmHg 90%
    07:00 +24°C° 1 mm 1 mps 718 mmHg 91%
    08:00 +26°C° 0.5 mm 1 mps 718 mmHg 89%
    09:00 +27°C° 0.5 mm 1 mps 718 mmHg 87%
    10:00 +28°C° 0.5 mm 1 mps 719 mmHg 84%
    11:00 +29°C° 0.9 mm 1 mps 718 mmHg 83%
    12:00 +29°C° 0.9 mm 1 mps 717 mmHg 82%
    13:00 +29°C° 0.9 mm 1 mps 716 mmHg 81%
    14:00 +29°C° 0.7 mm 1 mps 716 mmHg 83%
    15:00 +28°C° 0.7 mm 1 mps 715 mmHg 85%
    16:00 +28°C° 0.7 mm 1 mps 715 mmHg 87%
    17:00 +27°C° 0.6 mm 1 mps 715 mmHg 89%
    18:00 +26°C° 0.6 mm 1 mps 716 mmHg 91%
    19:00 +24°C° 0.6 mm 1 mps 716 mmHg 93%
    20:00 +24°C° 0.3 mm 1 mps 717 mmHg 92%
    21:00 +24°C° 0.3 mm 1 mps 717 mmHg 91%
    22:00 +23°C° 0.3 mm 2 mps 717 mmHg 90%
    23:00 +23°C° 0.1 mm 1 mps 717 mmHg 89%

    21 November, Thursday

    Time Temperature Precipitation Wind Pressure Humidity
    00:00 +24°C° 0.1 mm 1 mps 717 mmHg 87%
    01:00 +24°C° 0.1 mm 1 mps 717 mmHg 86%
    02:00 +23°C° 0.1 mm 1 mps 716 mmHg 85%
    03:00 +23°C° 0.1 mm 1 mps 716 mmHg 84%
    04:00 +23°C° 0.1 mm 1 mps 716 mmHg 83%
    05:00 +24°C° 0 mm 1 mps 717 mmHg 83%
    06:00 +24°C° 0 mm 1 mps 717 mmHg 83%
    07:00 +25°C° 0 mm 1 mps 718 mmHg 82%
    08:00 +26°C° 0.2 mm 1 mps 718 mmHg 79%
    09:00 +28°C° 0.2 mm 1 mps 718 mmHg 76%
    10:00 +29°C° 0.2 mm 1 mps 718 mmHg 74%
    11:00 +29°C° 0.4 mm 1 mps 717 mmHg 76%
    12:00 +29°C° 0.4 mm 1 mps 716 mmHg 78%
    13:00 +29°C° 0.4 mm 1 mps 716 mmHg 80%
    14:00 +28°C° 0.6 mm 1 mps 715 mmHg 82%
    15:00 +28°C° 0.6 mm 1 mps 715 mmHg 84%
    16:00 +28°C° 0.6 mm 1 mps 714 mmHg 86%
    17:00 +27°C° 0.1 mm 1 mps 714 mmHg 89%
    18:00 +25°C° 0.1 mm 1 mps 715 mmHg 91%
    19:00 +24°C° 0.1 mm 1 mps 715 mmHg 93%
    20:00 +24°C° 0.1 mm 1 mps 716 mmHg 92%
    21:00 +24°C° 0.1 mm 1 mps 716 mmHg 91%
    22:00 +24°C° 0.1 mm 1 mps 717 mmHg 90%
    23:00 +23°C° 0.6 mm 1 mps 717 mmHg 89%

    22 November, Friday

    Time Temperature Precipitation Wind Pressure Humidity
    00:00 +23°C° 0.6 mm 1 mps 716 mmHg 89%
    01:00 +23°C° 0.6 mm 1 mps 716 mmHg 89%
    02:00 +23°C° 0.5 mm 1 mps 716 mmHg 88%
    03:00 +24°C° 0.5 mm 1 mps 716 mmHg 87%
    04:00 +24°C° 0.5 mm 1 mps 716 mmHg 86%
    05:00 +24°C° 0.1 mm 1 mps 716 mmHg 86%
    06:00 +24°C° 0.1 mm 1 mps 717 mmHg 86%
    07:00 +25°C° 0.1 mm 1 mps 717 mmHg 86%
    08:00 +26°C° 0.2 mm 1 mps 718 mmHg 82%
    09:00 +28°C° 0.2 mm 2 mps 718 mmHg 79%
    10:00 +29°C° 0.2 mm 2 mps 718 mmHg 76%
    11:00 +29°C° 1.1 mm 2 mps 717 mmHg 79%
    12:00 +29°C° 1.1 mm 2 mps 716 mmHg 82%
    13:00 +29°C° 1.1 mm 1 mps 716 mmHg 85%
    14:00 +29°C° 0.7 mm 1 mps 715 mmHg 85%
    15:00 +29°C° 0.7 mm 1 mps 715 mmHg 85%
    16:00 +29°C° 0.7 mm 1 mps 714 mmHg 85%
    17:00 +27°C° 0.7 mm 1 mps 714 mmHg 87%
    18:00 +26°C° 0.7 mm 1 mps 715 mmHg 90%
    19:00 +25°C° 0.7 mm 1 mps 715 mmHg 92%
    20:00 +24°C° 0.2 mm 1 mps 716 mmHg 91%
    21:00 +24°C° 0.2 mm 1 mps 716 mmHg 91%
    22:00 +24°C° 0.2 mm 1 mps 717 mmHg 90%
    23:00 +24°C° 0.6 mm 1 mps 716 mmHg 89%

    23 November, Saturday

    Time Temperature Precipitation Wind Pressure Humidity
    00:00 +24°C° 0.6 mm 1 mps 716 mmHg 89%
    01:00 +24°C° 0.6 mm 1 mps 716 mmHg 88%
    02:00 +23°C° 1.2 mm 1 mps 716 mmHg 89%
    03:00 +23°C° 1.2 mm 1 mps 715 mmHg 89%
    04:00 +23°C° 1.2 mm 1 mps 715 mmHg 90%
    05:00 +23°C° 0.3 mm 1 mps 716 mmHg 88%
    06:00 +24°C° 0.3 mm 1 mps 717 mmHg 87%
    07:00 +24°C° 0.3 mm 1 mps 717 mmHg 86%
    08:00 +26°C° 0.7 mm 1 mps 718 mmHg 84%
    09:00 +27°C° 0.7 mm 1 mps 718 mmHg 81%
    10:00 +29°C° 0.7 mm 1 mps 718 mmHg 79%
    11:00 +29°C° 1.8 mm 1 mps 717 mmHg 81%
    12:00 +29°C° 1.8 mm 1 mps 716 mmHg 83%
    13:00 +29°C° 1.8 mm 1 mps 715 mmHg 85%
    14:00 +28°C° 0.9 mm 1 mps 715 mmHg 86%
    15:00 +28°C° 0.9 mm 1 mps 714 mmHg 87%
    16:00 +28°C° 0.9 mm 1 mps 713 mmHg 87%
    17:00 +27°C° 0.2 mm 1 mps 714 mmHg 89%
    18:00 +26°C° 0.2 mm 1 mps 715 mmHg 90%
    19:00 +25°C° 0.2 mm 1 mps 715 mmHg 91%
    20:00 +24°C° 1 mm 1 mps 716 mmHg 91%
    21:00 +24°C° 1 mm 1 mps 716 mmHg 91%
    22:00 +24°C° 1 mm 1 mps 717 mmHg 91%
    23:00 +24°C° 1.7 mm 1 mps 717 mmHg 91%
    Show more